Regional Weather Roundup
Issued by NWS

Home | Current Version | Previous Version | Graphics & Text | Print | Product List | Glossary Off
Versions: 1 2 3 4 5 6 7 8 9 10 11 12 13 14 15 16 17 18 19 20 21 22 23 24 25 26 27 28 29 30 31 32 33 34 35 36 37 38 39 40 41 42 43 44 45 46 47 48 49 50

113
ASUS43 KTOP 030259
RWRKS

WEATHER ROUNDUP FOR KANSAS
NATIONAL WEATHER SERVICE GOODLAND KS
1000 PM CDT MON MAY 02 2016

NOTE:  "FAIR" INDICATES FEW OR NO CLOUDS BELOW 12,000 FEET WITH NO
SIGNIFICANT WEATHER AND/OR OBSTRUCTIONS TO VISIBILITY.

KSZ001>006-013>018-027>032-041>047-030400-
NORTHWEST KANSAS

CITY           SKY/WX    TMP DP  RH WIND       PRES   REMARKS
GOODLAND       PTCLDY    50  37  61 CALM      30.06S
HAYS             N/A     54  36  50 SE9       30.06R VSB 3/4
HILL CITY      MOCLDY    53  40  61 E3        30.05R
RUSSELL        PTCLDY    53  42  66 E10       30.05R
$$

KSZ061>065-074>080-084>089-030400-
SOUTHWEST KANSAS

CITY           SKY/WX    TMP DP  RH WIND       PRES   REMARKS
DODGE CITY     CLEAR     49  35  58 S5        30.09S
ELKHART          N/A     50  33  52 E3          N/A
GARDEN CITY    CLEAR     45  35  68 S8        30.08S
GREAT BEND     PTCLDY    52  39  62 S6        30.07R
LIBERAL        CLEAR     52  34  50 CALM      30.12R
$$

KSZ066>073-081>083-090>101-030400-
SOUTHEAST KANSAS

CITY           SKY/WX    TMP DP  RH WIND       PRES   REMARKS
CHANUTE        CLEAR     47  45  93 CALM      30.09R
COFFEYVILLE    CLEAR     50  46  86 CALM      30.10R
HUTCHINSON     CLEAR     47  40  76 CALM      30.09R
MEDICINE LODGE   N/A     52  40  63 CALM      30.09R
NEWTON         CLEAR     52  36  54 CALM      30.11R
PARSONS        PTCLDY    47  45  93 CALM      30.10R
WICHITA INTL   CLEAR     51  41  68 CALM      30.09R
WICHITA JABRA  CLEAR     53  40  61 CALM      30.09R
WINFIELD       CLEAR     53  43  68 CALM      30.25F
$$

KSZ007>012-019>026-033>040-048>060-102>105-030400-
NORTHEAST KANSAS

CITY           SKY/WX    TMP DP  RH WIND       PRES   REMARKS
CONCORDIA      PTCLDY    49  36  61 S5        30.07R
EMPORIA        CLEAR     49  44  83 SE7       30.09R
LAWRENCE       CLEAR     45  44  97 CALM      30.08R
MANHATTAN      CLOUDY    48  43  82 CALM      30.07R
OLATHE IND     CLEAR     49  45  86 W3        30.08S
OLATHE EXE     CLEAR     48  43  82 CALM      30.08R
SALINA         MOCLDY    55  42  61 SE3       30.08R
TOPEKA BILLARD CLEAR     48  45  89 CALM      30.08R
TOPEKA FORBES  CLEAR     47  44  90 S6        30.08R
$$




USA.gov is the U.S. government's official web portal to all federal, state and local government web resources and services.